COSMOS 249 DEB, 3874

Orbit data source: Space-Track

COSMOS 249 DEB, 3874 is space debris in LEO originally from a launch on Sun, 20 Oct 1968 UTC launched from the Tyuratam Missile And Space Complex (TTMTR). Debris objects in space refer to the collection of defunct objects orbiting the Earth. Examples of debris include non-operational satellites, rocket bodies, and fragments generated from explosions, collisions, or faulty payload assembly.

Loading next visibility...
Identifier
3874, 1968-091BH
Orbit
LEO
Country
Flag of CISCIS
Related business
Manufacturer
Unknown
Mission
Spacecraft
Bus & Motor
Unknown
Mass
Unknown
Launch date (UTC)
1968-10-20 (58 years ago)
Launch vehicle
Unknown
Launch site
Tyuratam Missile And Space Complex (TTMTR)
Object type
Payload
Rocket body
Debris
Shape & HBR
Unknown shape, 0.1 m
Radar Cross Section
Medium (>0.1 m² and <1 m²)

Expand to show TLE details & history
Last TLE update: 10 hours ago

TLE from 10 hours ago
0 COSMOS 249 DEB
1 03874U 68091BH  26174.79827389  .00002596  00000-0  24435-2 0  9991
2 03874  62.2559 319.7709 0612300 192.9606 165.5033 13.20820731701541
Epoch: 2026-06-23T19:09Z
TLE epoch observation values (Epoch: 2026-06-23T19:09:30.864Z)
Latitude
0.00001°
Longitude
120.42763°
Altitude
1,633.039 km
Speed
6.843 km/s
True Right ascension
21h 19m 05s
True Declination
0° 00' 00"
Sunlit
Object was in full shadow at epoch
Visualization orbit readout
Latitude
Unknown
Longitude
Unknown
Altitude
Unknown
Speed
Unknown
Apparent Right ascension
Unknown
Apparent Declination
Unknown
Sunlit
N/A
Visualization observer readout
Local Sidereal Time
16:39:21
Azimuth
Unknown
Elevation
Unknown
Doppler factor
Unknown
Orbital elements
Apogee altitude
1,643.386 km
Perigee altitude
717.747 km
Semi-major axis
7,558.704 km
Eccentricity
0.06123
Inclination
62.2559°
RAAN
319.7709°
Arg. of periapsis
192.9606°
True anomaly
167.138°
Mean anomaly
165.5033°
Eccentric anomaly
166.33226°
Mean motion
3.30272 °/min
Orbital period
109 mins
BSTAR
0.0024435
Loading maneuver chart data...
Computing Atmospheric mass density...

Documentation

Showing up to 5 results
|